Weather Roundup
Issued by NWS Chicago, IL

Home | Current Version | Previous Version | Text Only | Print | Product List | Glossary On
Versions: 1 2 3 4 5 6 7 8 9 10 11 12 13 14 15 16 17 18 19 20 21 22 23 24 25 26 27 28 29 30 31 32 33 34 35 36 37 38 39 40 41 42 43 44 45 46 47 48 49 50
000
NZUS59 KLOT 282310
HRRLOT

CHICAGO AREA WEATHER ROUNDUP
NATIONAL WEATHER SERVICE CHICAGO/ROMEOVILLE IL
500 PM CST WED JAN 28 2015

NOTE: "FAIR" INDICATES FEW OR NO CLOUDS BELOW 12,000 FEET WITH NO
SIGNIFICANT WEATHER AND/OR OBSTRUCTIONS TO VISIBILITY.

* THESE STATIONS ARE NOT UNDER NWS QUALITY CONTROL. THEY ALSO MAY NOT
  REPORT WEATHER SUCH AS PRECIPITATION OR FOG.

ILZ005-006-012>014-019>023-290000-
NORTHEAST ILLINOIS

CITY           SKY/WX    TMP DP  RH WIND       PRES   REMARKS
OHARE          CLOUDY    32  22  66 SE20      30.02F WCI  20
MIDWAY         CLOUDY    34  22  61 SE15G22   30.04F WCI  24
AURORA         MOCLDY    33  23  66 SE17      30.00F WCI  22
LANSING*       MOCLDY    32  22  67 SE15      30.07F WCI  22
JOLIET*        MOCLDY    32  24  72 SE13G20   30.04F WCI  22
WAUKEGAN       PTCLDY    31  23  72 SE15G21   30.01F WCI  20
DUPAGE AIRPORT MOCLDY    33  22  63 SE13G24   30.00F WCI  24
WHEELING       PTCLDY    33  21  61 SE13      30.04F WCI  24
KANKAKEE*      MOCLDY    33  26  75 SE13      30.06F WCI  24
MORRIS*        MOCLDY    34  27  75 SE18G24   30.01F WCI  23
LEWIS AIRPORT* MOCLDY    32  24  72 SE16      30.02F WCI  21
NORTHERLY IS     N/A     32  23  70 SE18        N/A  WCI  20
$$

WIZ051-052-058>065-066-070>072-290000-
SOUTHEAST WISCONSIN

CITY           SKY/WX    TMP DP  RH WIND       PRES   REMARKS
MILWAUKEE      MOCLDY    32  20  61 S20       30.01F WCI  20
KENOSHA*       PTCLDY    32  22  66 SE17      30.01F WCI  21
RACINE*        MOCLDY    32  21  64 S17G29    30.03F WCI  21
BURLINGTON     MOCLDY    31  19  60 SE8       29.99F WCI  24
WAUKESHA         N/A     32  18  55 SE12G20   29.99F WCI  23
WEST BEND      MOCLDY    30  19  64 SE9G17    29.98F WCI  22
$$

INZ001>003-010>013-019-020-290000-
NORTHWEST INDIANA

CITY           SKY/WX    TMP DP  RH WIND       PRES   REMARKS
GARY*          MOCLDY    34  19  55 SE14G25   30.08F WCI  24
MICHIGAN CITY* NOT AVBL
RENSSELAER*    NOT AVBL
VALPARAISO     MOCLDY    30  19  63 SE13G21   30.10F WCI  20
$$

LMZ740>746-290000-
SOUTHERN LAKE MICHIGAN

STATION/POSITION TIME  SKY/WX   TEMP WIND        PRES    VSBY
                                AIR  DIR/SP/G
                 (UTC)          (F)  (DEG/KT/KT) (MB)    (MI)
HARRISON CRIB    2300            32  150/ 20/ 25   N/A
BURNHAM HARBOR   2300            32  140/ 14/ 18   N/A
CALUMET HARBOR   2300            33  140/ 12/ 19   N/A
BURNS HARBOR     NOT AVBL
MICHIGAN CITY    2300            31  120/ 13/ 17   N/A
$$

ABBREVIATIONS USED IN REMARKS
   TC - TEMPERATURE IN CELSIUS
  WCI - WIND CHILL INDEX
   HX - HEAT INDEX
  VSB - VISIBILITY
$$


USA.gov is the U.S. government's official web portal to all federal, state and local government web resources and services.